QPF
0.01 0.01 0.01 0.01 0.01 0.01 0.01 0.01 0.01 0.01 0.01 0.01 0.01 0.01 0.01 0.01 0.00 0.00 0.00 0.00 0.00 0.00 0.00 0.00 0.00 0.00 0.00 0.00 0.00 0.00 0.00 0.00 0.00 0.00 0.00 0.00 0.00 0.00 0.00 0.00 0.01 0.00 0.00 0.01
0.01 0.01 0.01 0.01 0.01 0.01 0.01 0.02 0.02 0.01 0.01 0.01 0.01 0.00 0.00 0.00 0.00 0.00 0.00 0.00 0.00 0.00 0.00 0.00 0.00 0.00 0.01 0.00 0.00 0.00 0.00 0.00 0.00 0.00 0.00 0.00 0.00 0.00 0.00 0.00 0.00 0.00 0.00 0.00
0.01 0.02 0.01 0.01 0.01 0.01 0.02 0.02 0.02 0.01 0.01 0.01 0.01 0.01 0.01 0.01 0.01 0.01 0.01 0.00 0.00 0.00 0.00 0.00 0.00 0.00 0.01 0.01 0.01 0.00 0.00 0.00 0.00 0.00 0.00 0.00 0.00 0.00 0.00 0.00 0.00 0.00 0.00 0.01
0.02 0.02 0.02 0.02 0.01 0.01 0.01 0.02 0.02 0.01 0.01 0.02 0.02 0.02 0.02 0.01 0.01 0.01 0.01 0.00 0.00 0.00 0.00 0.00 0.00 0.00 0.01 0.01 0.01 0.01 0.01 0.00 0.00 0.00 0.00 0.00 0.00 0.00 0.00 0.00 0.00 0.00 0.00 0.00
0.02 0.02 0.01 0.01 0.00 0.01 0.01 0.02 0.02 0.02 0.02 0.02 0.02 0.02 0.02 0.01 0.01 0.01 0.01 0.00 0.00 0.00 0.00 0.00 0.00 0.00 0.01 0.01 0.01 0.01 0.01 0.01 0.00 0.00 0.00 0.00 0.00 0.00 0.00 0.00 0.00 0.00 0.00 0.00
0.02 0.02 0.01 0.01 0.00 0.00 0.01 0.02 0.02 0.01 0.01 0.02 0.01 0.01 0.01 0.01 0.01 0.00 0.00 0.00 0.00 0.00 0.00 0.00 0.00 0.00 0.00 0.01 0.01 0.01 0.01 0.01 0.01 0.01 0.00 0.00 0.00 0.00 0.00 0.00 0.00 0.00 0.00 0.00
0.03 0.02 0.02 0.01 0.00 0.00 0.02 0.02 0.02 0.01 0.01 0.01 0.01 0.01 0.01 0.01 0.01 0.00 0.00 0.00 0.00 0.00 0.00 0.00 0.00 0.00 0.00 0.01 0.01 0.01 0.01 0.01 0.01 0.01 0.01 0.01 0.00 0.00 0.00 0.00 0.00 0.00 0.00 0.00
0.02 0.02 0.02 0.01 0.01 0.02 0.02 0.01 0.01 0.01 0.01 0.01 0.01 0.02 0.01 0.01 0.01 0.01 0.00 0.00 0.00 0.00 0.00 0.00 0.00 0.00 0.00 0.00 0.01 0.01 0.01 0.01 0.01 0.01 0.01 0.01 0.01 0.00 0.00 0.01 0.00 0.00 0.00 0.00
0.02 0.02 0.02 0.02 0.02 0.02 0.01 0.01 0.01 0.01 0.00 0.01 0.01 0.02 0.01 0.01 0.01 0.01 0.01 0.01 0.00 0.00 0.00 0.00 0.00 0.00 0.01 0.01 0.01 0.01 0.01 0.00 0.00 0.00 0.00 0.01 0.00 0.00 0.00 0.00 0.00 0.01 0.00 0.00
0.02 0.02 0.02 0.01 0.01 0.01 0.01 0.01 0.01 0.01 0.01 0.01 0.01 0.01 0.01 0.01 0.01 0.01 0.01 0.01 0.01 0.01 0.00 0.00 0.00 0.00 0.01 0.01 0.01 0.01 0.01 0.00 0.00 0.00 0.00 0.00 0.00 0.00 0.00 0.00 0.00 0.01 0.01 0.01
0.01 0.02 0.01 0.01 0.01 0.01 0.01 0.01 0.01 0.01 0.01 0.01 0.01 0.01 0.01 0.01 0.01 0.01 0.01 0.01 0.01 0.01 0.01 0.00 0.00 0.00 0.00 0.01 0.01 0.01 0.00 0.00 0.01 0.01 0.00 0.00 0.00 0.00 0.01 0.01 0.01 0.01 0.01 0.01
0.01 0.01 0.01 0.01 0.01 0.01 0.01 0.01 0.01 0.01 0.01 0.01 0.01 0.01 0.01 0.01 0.00 0.00 0.00 0.00 0.00 0.01 0.01 0.01 0.01 0.01 0.01 0.01 0.01 0.01 0.01 0.00 0.01 0.01 0.01 0.00 0.00 0.00 0.01 0.01 0.01 0.01 0.01 0.02
0.01 0.01 0.01 0.01 0.01 0.01 0.01 0.01 0.02 0.02 0.01 0.01 0.01 0.01 0.01 0.01 0.01 0.00 0.00 0.00 0.00 0.00 0.00 0.00 0.01 0.01 0.01 0.01 0.01 0.01 0.01 0.01 0.01 0.01 0.01 0.01 0.01 0.01 0.01 0.01 0.01 0.01 0.01 0.02
0.00 0.00 0.00 0.00 0.01 0.01 0.01 0.01 0.01 0.02 0.02 0.01 0.01 0.01 0.01 0.01 0.01 0.01 0.00 0.00 0.00 0.00 0.00 0.00 0.01 0.01 0.01 0.01 0.01 0.01 0.01 0.01 0.01 0.01 0.01 0.01 0.01 0.01 0.01 0.01 0.01 0.01 0.01 0.01
0.00 0.00 0.00 0.00 0.01 0.01 0.01 0.01 0.02 0.02 0.02 0.01 0.01 0.01 0.01 0.02 0.02 0.01 0.01 0.01 0.00 0.01 0.01 0.01 0.01 0.01 0.01 0.01 0.01 0.01 0.01 0.01 0.02 0.02 0.02 0.02 0.02 0.02 0.02 0.02 0.01 0.01 0.01 0.01
0.00 0.00 0.00 0.00 0.01 0.01 0.01 0.01 0.01 0.02 0.02 0.01 0.01 0.01 0.01 0.02 0.02 0.02 0.02 0.01 0.01 0.02 0.02 0.02 0.02 0.01 0.01 0.01 0.01 0.01 0.02 0.02 0.02 0.02 0.02 0.02 0.02 0.02 0.02 0.02 0.02 0.02 0.01 0.02
0.00 0.00 0.00 0.00 0.00 0.01 0.01 0.02 0.02 0.01 0.01 0.01 0.01 0.01 0.01 0.01 0.02 0.02 0.02 0.03 0.03 0.03 0.02 0.02 0.01 0.01 0.01 0.01 0.01 0.02 0.02 0.02 0.02 0.03 0.02 0.02 0.02 0.02 0.02 0.02 0.02 0.02 0.02 0.02
0.00 0.00 0.00 0.00 0.00 0.01 0.01 0.02 0.02 0.01 0.01 0.01 0.01 0.01 0.01 0.02 0.02 0.02 0.02 0.02 0.02 0.02 0.02 0.02 0.01 0.01 0.01 0.01 0.02 0.02 0.02 0.02 0.02 0.02 0.03 0.03 0.02 0.02 0.02 0.02 0.02 0.02 0.02 0.02
0.00 0.00 0.00 0.00 0.00 0.00 0.01 0.01 0.01 0.01 0.01 0.01 0.01 0.01 0.01 0.01 0.01 0.02 0.02 0.01 0.01 0.02 0.02 0.02 0.01 0.01 0.01 0.02 0.02 0.02 0.02 0.02 0.02 0.02 0.02 0.02 0.03 0.02 0.02 0.02 0.02 0.02 0.02 0.01
0.00 0.00 0.00 0.00 0.00 0.00 0.00 0.01 0.01 0.01 0.01 0.01 0.01 0.01 0.01 0.01 0.02 0.02 0.02 0.02 0.02 0.02 0.01 0.01 0.01 0.01 0.01 0.01 0.02 0.02 0.02 0.02 0.02 0.02 0.02 0.02 0.02 0.02 0.02 0.02 0.01 0.01 0.02 0.02
0.00 0.00 0.00 0.01 0.00 0.00 0.00 0.00 0.01 0.01 0.01 0.01 0.01 0.01 0.01 0.02 0.02 0.02 0.02 0.02 0.01 0.01 0.01 0.01 0.01 0.01 0.01 0.01 0.01 0.01 0.01 0.02 0.02 0.02 0.02 0.01 0.01 0.01 0.01 0.01 0.01 0.01 0.01 0.02
0.00 0.00 0.01 0.01 0.01 0.01 0.00 0.01 0.01 0.01 0.01 0.01 0.01 0.01 0.02 0.02 0.02 0.02 0.02 0.01 0.01 0.01 0.01 0.01 0.01 0.01 0.01 0.01 0.01 0.01 0.01 0.01 0.01 0.02 0.01 0.01 0.01 0.01 0.01 0.01 0.01 0.01 0.01 0.02
0.00 0.00 0.00 0.01 0.01 0.01 0.01 0.01 0.01 0.01 0.01 0.01 0.01 0.02 0.02 0.02 0.02 0.01 0.01 0.01 0.01 0.01 0.01 0.01 0.01 0.01 0.01 0.01 0.01 0.01 0.01 0.01 0.01 0.01 0.01 0.02 0.01 0.01 0.01 0.01 0.01 0.02 0.02 0.02
0.00 0.00 0.00 0.01 0.01 0.02 0.02 0.01 0.01 0.01 0.02 0.02 0.02 0.02 0.02 0.02 0.01 0.01 0.01 0.01 0.01 0.01 0.01 0.01 0.02 0.01 0.01 0.01 0.01 0.01 0.01 0.01 0.01 0.01 0.01 0.02 0.02 0.02 0.02 0.02 0.02 0.02 0.02 0.02
0.00 0.00 0.01 0.01 0.01 0.02 0.02 0.02 0.02 0.02 0.02 0.02 0.02 0.02 0.02 0.02 0.02 0.01 0.01 0.01 0.02 0.02 0.02 0.02 0.02 0.02 0.01 0.01 0.01 0.01 0.01 0.01 0.01 0.02 0.02 0.02 0.03 0.03 0.03 0.03 0.03 0.03 0.03 0.03
0.01 0.01 0.01 0.01 0.01 0.02 0.02 0.02 0.02 0.02 0.02 0.02 0.02 0.02 0.02 0.02 0.02 0.02 0.02 0.02 0.02 0.02 0.02 0.02 0.03 0.03 0.03 0.02 0.02 0.02 0.02 0.02 0.02 0.02 0.02 0.03 0.03 0.03 0.03 0.03 0.03 0.03 0.03 0.03
0.01 0.01 0.01 0.01 0.02 0.02 0.02 0.02 0.02 0.02 0.02 0.02 0.02 0.02 0.02 0.02 0.02 0.02 0.02 0.02 0.02 0.02 0.02 0.02 0.03 0.03 0.03 0.03 0.03 0.03 0.03 0.02 0.02 0.02 0.02 0.02 0.02 0.02 0.02 0.02 0.02 0.02 0.02 0.02
MSLP
1007.20 1006.06 1005.10 1004.31 1003.69 1003.20 1002.81 1002.48 1002.19 1001.91 1001.66 1001.45 1001.27 1001.16 1001.10 1001.10 1001.13 1001.19 1001.25 1001.31 1001.37 1001.45 1001.58 1001.79 1002.11 1002.58 1003.21 1003.99 1004.88 1005.86 1006.87 1007.86 1008.81 1009.69 1010.49 1011.22 1011.90 1012.56 1013.21 1013.86 1014.50 1015.14 1015.73 1016.28
1007.72 1006.77 1005.99 1005.38 1004.93 1004.59 1004.32 1004.07 1003.83 1003.57 1003.29 1003.02 1002.76 1002.53 1002.34 1002.20 1002.09 1002.01 1001.94 1001.87 1001.82 1001.80 1001.83 1001.94 1002.18 1002.57 1003.12 1003.83 1004.66 1005.59 1006.58 1007.56 1008.51 1009.39 1010.20 1010.94 1011.62 1012.27 1012.89 1013.51 1014.13 1014.74 1015.32 1015.87
1008.35 1007.63 1007.09 1006.73 1006.51 1006.36 1006.25 1006.12 1005.94 1005.69 1005.38 1005.01 1004.62 1004.23 1003.87 1003.54 1003.25 1003.00 1002.77 1002.57 1002.40 1002.28 1002.21 1002.25 1002.41 1002.71 1003.18 1003.82 1004.59 1005.47 1006.41 1007.36 1008.30 1009.17 1009.98 1010.72 1011.40 1012.03 1012.64 1013.23 1013.82 1014.41 1014.99 1015.55
1009.13 1008.67 1008.40 1008.31 1008.34 1008.41 1008.48 1008.47 1008.35 1008.10 1007.73 1007.26 1006.71 1006.14 1005.58 1005.04 1004.56 1004.12 1003.73 1003.40 1003.11 1002.89 1002.75 1002.71 1002.79 1003.03 1003.42 1003.98 1004.68 1005.50 1006.38 1007.30 1008.21 1009.07 1009.87 1010.61 1011.27 1011.90 1012.48 1013.06 1013.63 1014.21 1014.78 1015.35
1010.11 1009.89 1009.88 1010.04 1010.30 1010.58 1010.80 1010.90 1010.83 1010.57 1010.13 1009.54 1008.84 1008.09 1007.32 1006.59 1005.91 1005.31 1004.77 1004.32 1003.93 1003.63 1003.42 1003.32 1003.34 1003.51 1003.84 1004.33 1004.96 1005.71 1006.53 1007.41 1008.28 1009.12 1009.91 1010.63 1011.30 1011.91 1012.49 1013.05 1013.61 1014.18 1014.74 1015.31
1011.29 1011.27 1011.47 1011.83 1012.27 1012.71 1013.04 1013.21 1013.15 1012.86 1012.35 1011.65 1010.80 1009.89 1008.95 1008.05 1007.22 1006.48 1005.83 1005.28 1004.83 1004.47 1004.21 1004.07 1004.05 1004.16 1004.43 1004.85 1005.42 1006.10 1006.87 1007.69 1008.53 1009.35 1010.12 1010.84 1011.51 1012.12 1012.69 1013.25 1013.79 1014.34 1014.90 1015.46
1012.63 1012.77 1013.11 1013.60 1014.16 1014.66 1015.04 1015.22 1015.14 1014.79 1014.20 1013.39 1012.43 1011.39 1010.34 1009.32 1008.39 1007.56 1006.85 1006.25 1005.77 1005.38 1005.10 1004.94 1004.89 1004.97 1005.19 1005.55 1006.06 1006.68 1007.39 1008.17 1008.97 1009.77 1010.53 1011.25 1011.91 1012.52 1013.10 1013.65 1014.19 1014.72 1015.26 1015.79
1014.10 1014.33 1014.75 1015.29 1015.86 1016.36 1016.70 1016.82 1016.67 1016.24 1015.56 1014.67 1013.63 1012.52 1011.40 1010.34 1009.37 1008.52 1007.80 1007.20 1006.72 1006.35 1006.07 1005.90 1005.84 1005.90 1006.09 1006.41 1006.86 1007.43 1008.10 1008.83 1009.60 1010.37 1011.13 1011.84 1012.50 1013.12 1013.70 1014.24 1014.77 1015.28 1015.79 1016.28
1015.61 1015.89 1016.33 1016.84 1017.34 1017.75 1017.98 1017.98 1017.72 1017.19 1016.42 1015.46 1014.37 1013.24 1012.12 1011.08 1010.14 1009.33 1008.65 1008.11 1007.67 1007.34 1007.10 1006.95 1006.90 1006.95 1007.12 1007.41 1007.82 1008.34 1008.96 1009.66 1010.39 1011.14 1011.88 1012.59 1013.25 1013.87 1014.44 1014.97 1015.48 1015.97 1016.43 1016.88
1017.13 1017.42 1017.81 1018.23 1018.60 1018.84 1018.90 1018.74 1018.33 1017.68 1016.83 1015.83 1014.74 1013.64 1012.58 1011.60 1010.75 1010.03 1009.45 1008.99 1008.63 1008.36 1008.18 1008.06 1008.03 1008.08 1008.24 1008.51 1008.89 1009.38 1009.96 1010.62 1011.32 1012.05 1012.76 1013.45 1014.10 1014.71 1015.26 1015.78 1016.26 1016.71 1017.13 1017.51
1018.61 1018.88 1019.19 1019.46 1019.65 1019.69 1019.55 1019.19 1018.61 1017.85 1016.93 1015.91 1014.86 1013.82 1012.86 1012.01 1011.28 1010.69 1010.23 1009.87 1009.61 1009.42 1009.29 1009.22 1009.21 1009.28 1009.44 1009.69 1010.05 1010.51 1011.06 1011.68 1012.35 1013.04 1013.72 1014.38 1015.01 1015.58 1016.11 1016.59 1017.03 1017.43 1017.79 1018.11
1020.01 1020.25 1020.45 1020.57 1020.55 1020.37 1020.00 1019.45 1018.72 1017.86 1016.89 1015.89 1014.89 1013.96 1013.12 1012.41 1011.83 1011.38 1011.04 1010.80 1010.63 1010.51 1010.43 1010.41 1010.43 1010.51 1010.67 1010.92 1011.27 1011.70 1012.22 1012.80 1013.43 1014.07 1014.72 1015.33 1015.91 1016.44 1016.92 1017.35 1017.73 1018.07 1018.37 1018.62
1021.34 1021.54 1021.62 1021.57 1021.35 1020.95 1020.38 1019.66 1018.80 1017.86 1016.88 1015.91 1015.00 1014.19 1013.49 1012.93 1012.49 1012.17 1011.95 1011.80 1011.70 1011.64 1011.61 1011.61 1011.66 1011.76 1011.92 1012.17 1012.50 1012.92 1013.41 1013.95 1014.53 1015.12 1015.70 1016.25 1016.77 1017.23 1017.65 1018.01 1018.33 1018.61 1018.84 1019.02
1022.59 1022.72 1022.69 1022.47 1022.07 1021.49 1020.75 1019.88 1018.94 1017.96 1017.00 1016.09 1015.29 1014.60 1014.05 1013.62 1013.31 1013.10 1012.96 1012.88 1012.83 1012.80 1012.80 1012.82 1012.87 1012.98 1013.15 1013.40 1013.73 1014.12 1014.58 1015.08 1015.61 1016.14 1016.65 1017.13 1017.56 1017.95 1018.29 1018.58 1018.83 1019.04 1019.20 1019.33
1023.72 1023.78 1023.63 1023.27 1022.71 1021.98 1021.11 1020.16 1019.18 1018.21 1017.30 1016.48 1015.79 1015.23 1014.81 1014.50 1014.29 1014.16 1014.08 1014.03 1014.00 1013.99 1013.98 1014.01 1014.07 1014.18 1014.35 1014.60 1014.92 1015.29 1015.72 1016.18 1016.65 1017.11 1017.54 1017.93 1018.29 1018.59 1018.84 1019.06 1019.24 1019.38 1019.49 1019.57
1024.70 1024.66 1024.40 1023.91 1023.24 1022.40 1021.46 1020.48 1019.50 1018.58 1017.75 1017.05 1016.48 1016.04 1015.73 1015.52 1015.39 1015.31 1015.26 1015.22 1015.19 1015.16 1015.15 1015.16 1015.22 1015.33 1015.51 1015.75 1016.05 1016.41 1016.81 1017.22 1017.62 1018.01 1018.36 1018.67 1018.94 1019.15 1019.33 1019.48 1019.59 1019.68 1019.75 1019.80
1025.47 1025.33 1024.96 1024.37 1023.61 1022.71 1021.75 1020.78 1019.86 1019.02 1018.30 1017.71 1017.27 1016.96 1016.75 1016.62 1016.54 1016.48 1016.44 1016.39 1016.34 1016.30 1016.27 1016.27 1016.32 1016.43 1016.61 1016.84 1017.14 1017.47 1017.83 1018.19 1018.53 1018.84 1019.11 1019.34 1019.52 1019.66 1019.77 1019.85 1019.92 1019.98 1020.02 1020.05
1025.98 1025.74 1025.27 1024.60 1023.78 1022.87 1021.93 1021.01 1020.17 1019.44 1018.85 1018.39 1018.07 1017.87 1017.75 1017.68 1017.64 1017.60 1017.56 1017.50 1017.44 1017.37 1017.33 1017.33 1017.37 1017.48 1017.65 1017.88 1018.16 1018.47 1018.78 1019.08 1019.36 1019.60 1019.79 1019.93 1020.04 1020.11 1020.17 1020.21 1020.25 1020.29 1020.32 1020.35
1026.21 1025.86 1025.31 1024.59 1023.75 1022.85 1021.96 1021.12 1020.39 1019.78 1019.32 1018.99 1018.79 1018.68 1018.64 1018.63 1018.62 1018.60 1018.56 1018.50 1018.43 1018.36 1018.32 1018.31 1018.36 1018.48 1018.65 1018.87 1019.12 1019.39 1019.66 1019.90 1020.11 1020.27 1020.38 1020.46 1020.50 1020.52 1020.54 1020.56 1020.59 1020.63 1020.67 1020.71
1026.16 1025.73 1025.12 1024.37 1023.54 1022.68 1021.86 1021.12 1020.50 1020.01 1019.67 1019.47 1019.37 1019.35 1019.38 1019.42 1019.44 1019.45 1019.42 1019.37 1019.31 1019.26 1019.23 1019.24 1019.30 1019.42 1019.59 1019.80 1020.03 1020.25 1020.46 1020.64 1020.78 1020.86 1020.91 1020.92 1020.91 1020.90 1020.90 1020.91 1020.95 1021.00 1021.06 1021.12
1025.89 1025.41 1024.76 1024.02 1023.21 1022.41 1021.68 1021.04 1020.53 1020.16 1019.93 1019.83 1019.82 1019.87 1019.96 1020.04 1020.11 1020.14 1020.14 1020.12 1020.09 1020.06 1020.07 1020.10 1020.19 1020.32 1020.48 1020.67 1020.87 1021.05 1021.20 1021.31 1021.37 1021.39 1021.37 1021.33 1021.29 1021.25 1021.24 1021.26 1021.31 1021.39 1021.47 1021.56
1025.50 1024.99 1024.35 1023.62 1022.87 1022.15 1021.50 1020.96 1020.55 1020.28 1020.14 1020.12 1020.17 1020.28 1020.41 1020.54 1020.64 1020.71 1020.75 1020.77 1020.78 1020.80 1020.84 1020.91 1021.02 1021.16 1021.32 1021.48 1021.64 1021.77 1021.85 1021.90 1021.89 1021.85 1021.78 1021.70 1021.63 1021.59 1021.58 1021.62 1021.69 1021.79 1021.90 1022.00
1025.09 1024.58 1023.96 1023.29 1022.61 1021.96 1021.40 1020.95 1020.63 1020.44 1020.37 1020.40 1020.51 1020.65 1020.82 1020.97 1021.10 1021.20 1021.28 1021.35 1021.41 1021.47 1021.55 1021.66 1021.79 1021.93 1022.08 1022.22 1022.33 1022.41 1022.43 1022.42 1022.35 1022.26 1022.15 1022.05 1021.97 1021.93 1021.94 1021.99 1022.08 1022.20 1022.33 1022.45
1024.76 1024.27 1023.71 1023.10 1022.49 1021.94 1021.47 1021.10 1020.85 1020.72 1020.70 1020.76 1020.89 1021.05 1021.22 1021.39 1021.55 1021.68 1021.79 1021.90 1022.00 1022.10 1022.22 1022.35 1022.49 1022.63 1022.76 1022.87 1022.94 1022.96 1022.94 1022.87 1022.77 1022.64 1022.52 1022.40 1022.33 1022.30 1022.32 1022.39 1022.50 1022.63 1022.77 1022.88
1024.55 1024.12 1023.62 1023.09 1022.58 1022.11 1021.72 1021.43 1021.24 1021.15 1021.15 1021.23 1021.36 1021.52 1021.69 1021.86 1022.02 1022.17 1022.31 1022.43 1022.56 1022.69 1022.83 1022.97 1023.11 1023.24 1023.35 1023.42 1023.45 1023.43 1023.37 1023.27 1023.15 1023.01 1022.88 1022.77 1022.71 1022.70 1022.74 1022.82 1022.95 1023.09 1023.22 1023.32
1024.52 1024.14 1023.72 1023.28 1022.86 1022.48 1022.17 1021.93 1021.79 1021.72 1021.74 1021.81 1021.93 1022.08 1022.23 1022.39 1022.55 1022.69 1022.84 1022.97 1023.11 1023.25 1023.39 1023.52 1023.65 1023.76 1023.83 1023.88 1023.87 1023.83 1023.74 1023.63 1023.50 1023.37 1023.25 1023.17 1023.13 1023.14 1023.20 1023.31 1023.43 1023.57 1023.68 1023.76
1024.64 1024.32 1023.98 1023.63 1023.29 1022.99 1022.75 1022.57 1022.46 1022.41 1022.42 1022.48 1022.58 1022.70 1022.83 1022.97 1023.10 1023.24 1023.37 1023.50 1023.63 1023.76 1023.88 1024.00 1024.10 1024.18 1024.23 1024.24 1024.22 1024.16 1024.07 1023.95 1023.84 1023.73 1023.64 1023.60 1023.59 1023.63 1023.71 1023.82 1023.94 1024.06 1024.16 1024.21
Thickness
5436 5442 5445 5449 5452 5455 5459 5468 5475 5481 5478 5480 5479 5478 5478 5478 5479 5481 5484 5485 5487 5489 5493 5496 5498 5500 5503 5505 5508 5511 5514 5517 5520 5522 5524 5525 5527 5528 5528 5529 5529 5529 5529 5529
5430 5435 5440 5441 5447 5451 5454 5459 5463 5466 5466 5468 5468 5468 5469 5469 5470 5472 5474 5476 5478 5480 5482 5485 5488 5490 5492 5495 5497 5501 5505 5507 5509 5511 5513 5515 5517 5518 5518 5519 5520 5521 5521 5521
5434 5430 5435 5441 5440 5443 5446 5449 5453 5459 5459 5457 5456 5456 5458 5460 5461 5463 5465 5467 5468 5470 5473 5475 5478 5480 5482 5485 5488 5491 5494 5497 5499 5502 5504 5505 5507 5508 5509 5511 5512 5513 5513 5513
5423 5426 5428 5440 5430 5433 5436 5437 5438 5442 5443 5444 5445 5448 5449 5451 5453 5455 5456 5458 5460 5462 5464 5466 5468 5470 5473 5475 5478 5481 5484 5486 5489 5492 5494 5496 5497 5499 5500 5501 5503 5504 5504 5505
5415 5423 5431 5432 5424 5420 5424 5429 5426 5428 5431 5433 5435 5441 5447 5443 5442 5444 5447 5449 5451 5453 5455 5457 5459 5462 5464 5467 5469 5472 5475 5477 5479 5481 5484 5486 5488 5489 5491 5492 5493 5495 5495 5496
5405 5416 5423 5425 5415 5413 5418 5426 5421 5419 5421 5423 5426 5439 5445 5435 5433 5435 5437 5439 5441 5444 5446 5448 5450 5452 5455 5458 5461 5463 5465 5467 5469 5472 5475 5477 5479 5480 5481 5482 5483 5485 5486 5487
5400 5406 5414 5408 5404 5409 5417 5420 5411 5411 5412 5413 5417 5422 5423 5421 5422 5424 5427 5429 5432 5435 5437 5439 5441 5443 5446 5449 5451 5453 5455 5457 5460 5463 5465 5467 5469 5471 5472 5473 5474 5476 5477 5478
5393 5399 5403 5396 5397 5401 5403 5400 5401 5402 5403 5404 5406 5407 5409 5410 5412 5414 5417 5420 5422 5425 5427 5429 5431 5433 5437 5439 5441 5443 5445 5448 5451 5453 5455 5457 5460 5461 5463 5464 5466 5467 5468 5469
5387 5393 5389 5385 5386 5386 5386 5388 5390 5392 5392 5393 5395 5397 5399 5400 5402 5404 5407 5410 5412 5415 5418 5420 5421 5424 5427 5429 5431 5433 5436 5439 5441 5443 5446 5448 5450 5452 5454 5455 5457 5458 5459 5460
5375 5382 5379 5377 5376 5375 5376 5378 5380 5381 5382 5383 5386 5388 5389 5391 5393 5395 5397 5400 5402 5405 5408 5410 5412 5414 5417 5419 5421 5424 5427 5429 5431 5433 5436 5438 5440 5442 5445 5446 5448 5449 5450 5452
5371 5374 5373 5373 5369 5367 5368 5369 5370 5371 5372 5374 5376 5378 5379 5381 5383 5385 5387 5389 5392 5395 5398 5400 5402 5404 5406 5408 5411 5414 5417 5419 5421 5423 5426 5428 5430 5432 5435 5437 5439 5440 5442 5443
5373 5369 5367 5367 5362 5360 5359 5360 5360 5361 5363 5364 5366 5368 5370 5372 5373 5375 5377 5380 5382 5385 5388 5390 5392 5394 5396 5398 5402 5405 5408 5411 5412 5414 5416 5418 5421 5423 5424 5427 5429 5430 5432 5433
5358 5355 5354 5354 5352 5350 5349 5350 5351 5352 5354 5355 5357 5359 5361 5363 5365 5366 5368 5371 5373 5376 5378 5380 5383 5385 5386 5388 5392 5395 5399 5401 5403 5405 5407 5409 5411 5414 5416 5418 5420 5422 5423 5425
5342 5342 5344 5344 5343 5340 5340 5340 5341 5342 5344 5345 5347 5349 5351 5354 5356 5358 5360 5362 5364 5367 5369 5372 5374 5376 5377 5379 5382 5386 5389 5390 5393 5395 5398 5400 5402 5404 5407 5410 5412 5414 5415 5416
5333 5333 5333 5332 5331 5330 5329 5330 5332 5333 5335 5336 5338 5340 5342 5345 5347 5350 5352 5353 5356 5359 5361 5363 5365 5367 5368 5370 5373 5376 5379 5381 5384 5386 5388 5391 5393 5395 5397 5400 5402 5405 5407 5408
5324 5323 5323 5323 5323 5322 5320 5321 5322 5324 5325 5327 5329 5331 5332 5335 5338 5340 5343 5345 5347 5351 5353 5355 5357 5359 5360 5362 5365 5368 5370 5372 5375 5377 5380 5382 5384 5386 5389 5391 5394 5396 5397 5399
5315 5317 5316 5316 5315 5313 5312 5311 5312 5314 5315 5317 5319 5321 5323 5326 5329 5333 5335 5336 5339 5342 5345 5347 5349 5351 5353 5355 5358 5361 5363 5364 5366 5369 5372 5374 5377 5379 5381 5383 5385 5387 5388 5389
5306 5306 5306 5305 5305 5304 5304 5303 5304 5305 5306 5307 5309 5311 5314 5317 5321 5324 5326 5329 5332 5335 5338 5340 5342 5344 5346 5349 5351 5353 5356 5358 5360 5362 5365 5367 5369 5371 5373 5375 5377 5379 5380 5381
5297 5296 5296 5296 5296 5296 5296 5296 5296 5296 5297 5298 5301 5303 5306 5309 5311 5315 5318 5321 5325 5329 5332 5333 5336 5338 5340 5343 5345 5347 5349 5351 5353 5355 5357 5360 5362 5364 5366 5368 5370 5371 5372 5373
5289 5288 5288 5288 5288 5287 5288 5288 5287 5288 5289 5290 5293 5295 5298 5301 5304 5306 5310 5314 5318 5321 5324 5327 5329 5332 5334 5336 5338 5341 5342 5344 5346 5348 5350 5353 5355 5356 5358 5360 5362 5363 5364 5365
5281 5281 5280 5280 5279 5279 5279 5279 5279 5281 5282 5283 5285 5288 5290 5293 5296 5299 5303 5309 5312 5314 5317 5321 5323 5326 5328 5330 5332 5334 5336 5338 5339 5341 5343 5345 5347 5349 5351 5352 5354 5355 5356 5356
5273 5272 5272 5272 5271 5271 5271 5271 5271 5273 5274 5276 5277 5280 5282 5286 5289 5293 5296 5300 5304 5307 5311 5314 5317 5320 5322 5324 5326 5328 5330 5331 5333 5334 5336 5337 5339 5341 5343 5344 5345 5346 5347 5348
5266 5265 5264 5264 5263 5263 5263 5263 5264 5265 5267 5269 5271 5273 5276 5279 5283 5286 5291 5294 5297 5301 5304 5308 5311 5314 5316 5318 5320 5322 5324 5325 5327 5328 5329 5330 5332 5333 5335 5336 5337 5338 5339 5340
5259 5257 5256 5255 5254 5255 5257 5258 5258 5259 5260 5262 5265 5267 5269 5273 5277 5280 5283 5287 5290 5294 5298 5301 5304 5307 5309 5312 5314 5316 5318 5320 5321 5322 5323 5324 5325 5326 5328 5329 5330 5331 5332 5333
5250 5249 5248 5247 5248 5250 5251 5251 5251 5253 5255 5257 5259 5261 5263 5266 5269 5273 5276 5280 5283 5287 5291 5294 5297 5299 5302 5305 5307 5309 5312 5314 5315 5317 5317 5318 5319 5320 5322 5323 5324 5325 5326 5328
5244 5243 5243 5242 5242 5243 5244 5245 5247 5248 5250 5252 5253 5255 5257 5259 5262 5266 5269 5273 5276 5279 5282 5285 5288 5291 5294 5297 5300 5302 5305 5307 5309 5310 5311 5312 5314 5315 5316 5318 5318 5320 5321 5321
5237 5237 5236 5237 5237 5237 5238 5239 5240 5242 5243 5245 5247 5248 5250 5253 5256 5259 5262 5265 5269 5271 5275 5278 5281 5284 5287 5290 5293 5295 5298 5300 5302 5304 5305 5307 5308 5310 5311 5312 5313 5314 5315 5316